This demonstration page uses our WeatherBlox Daily Observations layout. Learn more.

Left ArrowRight Arrow

38.89511, -77.03637

Hourly Observations for July 9, 2015

Temp ( °F °C ) Dew Point ( °F °C ) Humidity (%) Winds ( mph kmh ) Pressure ( in mb ) Visibility ( mi km ) Precip ( " mm )
12:52 am 00:52 Mostly Cloudy 78 25.6 73 22.8 85 85 W 6 9 29.99 1016 10 16 0.00 0.00
1:52 am 01:52 Mostly Cloudy with Light Rain 78 25.6 73 22.8 85 85 W 5 7 29.98 1015 9 14 0.00 0.03
2:52 am 02:52 Mostly Cloudy 79 26.1 72 22.2 79 79 Calm 29.98 1015 10 16 0.00 0.03
3:52 am 03:52 Mostly Cloudy 78 25.6 72 22.2 82 82 W 5 7 29.99 1016 10 16 0.00 0.00
4:52 am 04:52 Mostly Cloudy 78 25.6 72 22.2 82 82 W 6 9 30.01 1016 10 16 0.00 0.00
5:52 am 05:52 Mostly Cloudy 79 26.1 71 21.7 77 77 WNW 6 9 30.01 1016 10 16 0.00 0.00
6:52 am 06:52 Mostly Cloudy 80 26.7 71 21.7 74 74 W 3 6 30.02 1017 10 16 0.00 0.00
7:52 am 07:52 Mostly Cloudy 81 27.2 72 22.2 74 74 W 5 7 30.02 1017 10 16 0.00 0.00
8:52 am 08:52 Mostly Cloudy 84 28.9 72 22.2 67 67 VRB 6 9 30.03 1017 10 16 0.00 0.00
9:52 am 09:52 Mostly Cloudy 86 30 71 21.7 61 61 Calm 30.03 1017 10 16 0.00 0.00
10:52 am 10:52 Cloudy 86 30 73 22.8 65 65 S 9 15 30.01 1016 10 16 0.00 0.00
11:52 am 11:52 Cloudy 88 31.1 74 23.3 63 63 S 9 15 30.01 1016 10 16 0.00 0.00
12:52 pm 12:52 Cloudy 89 31.7 74 23.3 61 61 S 10 17 29.99 1016 10 16 0.00 0.00
1:52 pm 13:52 Mostly Cloudy 91 32.8 74 23.3 57 57 S 12 19 29.95 1014 10 16 0.00 0.00
2:52 pm 14:52 Cloudy 90 32.2 73 22.8 58 58 S 12 19 29.93 1013 10 16 0.00 0.00
3:52 pm 15:52 Cloudy 90 32.2 74 23.3 59 59 S 10 17 29.91 1013 10 16 0.00 0.00
4:52 pm 16:52 Cloudy 89 31.7 76 24.4 65 65 S 8 13 29.89 1012 10 16 0.00 0.00
5:52 pm 17:52 Cloudy 89 31.7 76 24.4 65 65 S 13 20 29.87 1012 10 16 0.00 0.00
6:01 pm 18:01 Cloudy with Light Rain 90 32 75 24 63 63 SSW 9 15 29.88 1012 10 16 0.00 0.03
6:42 pm 18:42 Cloudy 90 32 73 23 59 59 SSW 12 19 29.85 1011 10 16 0.00 0.00
6:52 pm 18:52 Cloudy 90 32.2 74 23.3 59 59 SW 13 20 29.87 1012 10 16 0.01 0.25
6:56 pm 18:56 Cloudy with Light Rain 90 32 73 23 59 59 WNW 8 13 29.88 1012 8 13 0.00 0.03
7:08 pm 19:08 Cloudy with Light Rain 84 29 75 24 74 74 WSW 7 11 29.88 1012 8 13 0.00 0.00
7:25 pm 19:25 Cloudy 86 30 75 24 70 70 WNW 7 11 29.88 1012 10 16 0.02 0.51
7:52 pm 19:52 Cloudy 86 30 75 23.9 70 70 WNW 7 11 29.88 1012 10 16 0.02 0.51
8:52 pm 20:52 Mostly Clear 85 29.4 74 23.3 70 70 W 5 7 29.87 1012 10 16 0.00 0.00
9:52 pm 21:52 Partly Cloudy 87 30.6 69 20.6 55 55 SW 8 13 29.89 1012 10 16 0.00 0.00
10:52 pm 22:52 Mostly Cloudy 85 29.4 68 20 57 57 SW 9 15 29.91 1013 10 16 0.00 0.00
11:52 pm 23:52 Mostly Cloudy 85 29.4 67 19.4 55 55 W 7 11 29.92 1013 10 16 0.00 0.00

Powered by AerisWeather